Miscellaneous Local Product
Issued by NWS North Platte, NE

Home | Current Version | Previous Version | Text Only | Print | Product List | Glossary On
Versions: 1 2 3 4 5 6 7 8 9 10 11 12 13 14 15 16 17 18 19 20 21 22 23 24 25 26 27 28 29 30 31 32 33 34 35 36 37 38 39 40 41 42 43 44 45 46 47 48 49 50
000
AXUS43 KLBF 211610
MISLBF


WESTERN AND NORTH CENTRAL NEBRASKA HOURLY WEATHER ROUNDUP
NATIONAL WEATHER SERVICE NORTH PLATTE NE
1100 AM CDT SUN SEP 21 2014

***STATIONS NOT REPORTING VARIABLES SUCH AS SKY/WEATHER OR
PRESSURE ARE PROVIDED BY THE NEBRASKA DEPARTMENT OF
ROADS...RAWS...AND APRS NETWORKS...AND ARE NOT UNDER
NATIONAL WEATHER SERVICE QUALITY CONTROL***

...OBSERVATIONS IN AND NEAR THE EASTERN PANHANDLE OF NEBRASKA...

CITY           SKY/WX    TMP DP  RH WIND       PRES   REMARKS
PINE RIDGE     SUNNY     61  39  44 CALM      30.37S
CHADRON        SUNNY     63  39  41 CALM      30.37S
ALLIANCE       CLOUDY    63  38  39 E5        30.39R
SIDNEY         CLOUDY    63  39  41 E6        30.41F
WHITECLAY        N/A     62  38  40 CALM        N/A
RUSHVILLE        N/A     68  26  20 S6          N/A
CRESCENT LAKE    N/A     66  43  43 CALM        N/A
LISCO            N/A     64  39  40 S5          N/A
BIG SPRINGS      N/A     58  47  66 CALM        N/A
$$

...OBSERVATIONS IN NORTH CENTRAL NEBRASKA...

CITY           SKY/WX    TMP DP  RH WIND       PRES   REMARKS
VALENTINE      SUNNY     67  38  34 N9        30.34S
THEDFORD       SUNNY     66  40  38 N6        30.36R
AINSWORTH      SUNNY     64  40  40 N12       30.34R
O`NEILL        SUNNY     64  46  53 NW10      30.31S
ORD            SUNNY     66  45  46 N10       30.30S
BROKEN BOW     SUNNY     69  40  34 N10       30.33R
SPRINGVIEW       N/A     65  45  48 MISG        N/A
ROSE             N/A     70  46  41 W10         N/A
NEWPORT          N/A     66  44  45 NW12        N/A
COMSTOCK         N/A     72  43  34 N7          N/A
$$

...OBSERVATIONS IN SOUTHWEST NEBRASKA AND FAR NORTHEAST COLORADO...

CITY           SKY/WX    TMP DP  RH WIND       PRES   REMARKS
WRAY           PTSUNNY   66  37  34 CALM      30.39S
HOLYOKE        FAIR      66  37  34 E9        30.39F
IMPERIAL       SUNNY     68  35  29 NE8       30.38R
OGALLALA       MOSUNNY   66  44  46 E3        30.38S
NORTH PLATTE   PTSUNNY   62  46  55 SW3       30.36R
MCCOOK         PTSUNNY   69  40  34 NE9       30.35R
LEXINGTON      MOSUNNY   67  41  38 N6        30.34S
PAXTON           N/A     56  48  74 CALM        N/A
SUTHERLAND       N/A     66  37  33 NE6         N/A
BRADY            N/A     63  49  59 CALM        N/A
GOTHENBURG       N/A     61  41  47 CALM        N/A
CALLAWAY         N/A     61  44  53 N7          N/A
$$

...SOME WEATHER OBSERVATIONS FROM AROUND THE REGION...

CITY           SKY/WX    TMP DP  RH WIND       PRES   REMARKS
DENVER         PTSUNNY   62  45  53 W5        30.39F
LARAMIE        SUNNY     57  40  52 SE22      30.41F
CHEYENNE       SUNNY     61  36  39 S17G24    30.42S
SCOTTSBLUFF    CLOUDY    62  40  44 SE6       30.40R
RAPID CITY     SUNNY     64  38  38 CALM      30.36S
PIERRE         SUNNY     63  43  48 W7        30.30R
WINNER         FAIR      63  41  44 NW7       30.33R
SIOUX FALLS    MOSUNNY   64  47  53 N15       30.23R
OMAHA          SUNNY     66  49  54 N16       30.22S
GRAND ISLAND   SUNNY     68  43  40 N10       30.30S
KANSAS CITY    MOSUNNY   71  53  52 NW14      30.18S
WICHITA        PTSUNNY   78  47  33 NE20      30.22R
HAYS           SUNNY     70  46  43 NE9       30.31R
LIBERAL        SUNNY     73  45  35 E17G29    30.31R
GOODLAND       PTSUNNY   65  43  44 NE5       30.39R
$$



USA.gov is the U.S. government's official web portal to all federal, state and local government web resources and services.